GW2670 Weather Reports


time (UTC)temp
F
wind
direction
speed
knots
gust
knots
rain 1hr
in
rain 24hr
in
rain mn
in
humidity
%
barometer
mb
20260507140513 65 201 2.6 5.2 0.00 0.03 0.03 52 1012.0
20260507140032 65 232 2.6 5.2 0.00 0.03 0.03 51 1012.0
20260507135513 66 159 2.6 5.2 0.00 0.03 0.03 48 1012.2
20260507135014 65 192 1.7 5.2 0.00 0.03 0.03 50 1012.2
20260507134539 65 198 0.9 3.5 0.00 0.03 0.03 53 1012.2
20260507134012 64 148 0.0 3.5 0.00 0.03 0.03 55 1012.3
20260507133517 63 81 0.9 3.5 0.00 0.03 0.03 56 1012.4
20260507133029 64 0 0.9 3.5 0.00 0.03 0.03 55 1012.5
20260507132517 64 223 0.0 2.6 0.00 0.03 0.03 55 1012.5
20260507132019 64 213 0.9 2.6 0.00 0.03 0.03 51 1012.6
20260507131534 64 0 0.0 1.7 0.00 0.03 0.03 50 1012.6
20260507131010 64 0 0.0 3.5 0.00 0.03 0.03 50 1012.7
20260507130514 64 207 0.9 3.5 0.00 0.03 0.03 50 1012.7
20260507130029 64 181 0.9 3.5 0.00 0.03 0.03 52 1012.8
20260507125518 64 0 0.0 7.0 0.00 0.03 0.03 50 1012.8
20260507125014 64 198 1.7 7.0 0.00 0.03 0.03 51 1012.8
20260507124533 64 178 2.6 7.0 0.00 0.03 0.03 49 1012.9
20260507124011 65 198 0.9 3.5 0.00 0.03 0.03 50 1012.9
20260507123514 66 248 0.0 1.7 0.00 0.03 0.03 51 1012.9
20260507123029 66 275 0.0 3.5 0.00 0.03 0.03 54 1012.9
20260507122512 66 337 0.9 4.3 0.00 0.03 0.03 55 1012.8
20260507122015 66 340 1.7 4.3 0.00 0.03 0.03 52 1012.8
20260507121528 66 333 0.9 3.5 0.00 0.03 0.03 53 1012.7
20260507121014 65 263 0.9 3.5 0.00 0.03 0.03 48 1012.7
20260507120516 66 341 1.7 3.5 0.00 0.03 0.03 46 1012.8
20260507120030 66 297 0.9 2.6 0.00 0.03 0.03 54 1012.6
20260507115514 65 267 0.9 3.5 0.00 0.03 0.03 51 1012.7
20260507115010 64 0 0.9 3.5 0.00 0.03 0.03 50 1012.7
20260507114532 64 173 0.0 2.6 0.00 0.03 0.03 52 1012.9
20260507114013 64 200 0.0 3.5 0.00 0.03 0.03 54 1012.9
20260507113516 63 133 0.0 3.5 0.00 0.03 0.03 55 1013.0
20260507113033 63 0 0.0 0.9 0.00 0.03 0.03 58 1013.1
20260507112518 63 213 0.0 1.7 0.00 0.03 0.03 56 1013.1
20260507112015 63 228 0.0 1.7 0.00 0.03 0.03 59 1013.1
20260507111532 62 202 0.0 1.7 0.00 0.03 0.03 61 1013.2
20260507111015 62 148 0.9 1.7 0.00 0.03 0.03 57 1013.3
20260507110515 62 256 0.0 0.9 0.00 0.03 0.03 61 1013.4
20260507110045 62 0 0.0 0.0 0.00 0.03 0.03 60 1013.3
20260507105515 62 0 0.0 0.9 0.00 0.03 0.03 63 1013.2
20260507105017 61 0 0.0 2.6 0.00 0.03 0.03 67 1013.3
20260507104532 61 260 0.0 2.6 0.00 0.03 0.03 62 1013.2
20260507104015 61 338 0.9 2.6 0.00 0.03 0.03 59 1013.2
20260507103515 61 0 0.0 1.7 0.00 0.03 0.03 66 1013.2
20260507103035 61 333 0.0 3.5 0.00 0.03 0.03 62 1013.3
20260507102515 61 348 0.9 4.3 0.00 0.03 0.03 60 1013.2
20260507102016 62 337 1.7 4.3 0.00 0.03 0.03 60 1013.3
20260507101541 61 38 2.6 4.3 0.00 0.03 0.03 62 1013.3
20260507101018 62 24 2.6 4.3 0.00 0.03 0.03 62 1013.3
20260507100515 62 326 0.9 4.3 0.00 0.03 0.03 63 1013.3
20260507100036 61 332 1.7 4.3 0.00 0.03 0.03 65 1013.4
20260507095515 61 24 1.7 3.5 0.00 0.03 0.03 62 1013.4
20260507095016 61 347 0.9 3.5 0.00 0.03 0.03 68 1013.4
20260507094533 60 304 0.9 2.6 0.00 0.03 0.03 66 1013.4
20260507094015 60 331 0.0 2.6 0.00 0.03 0.03 65 1013.4
20260507093515 60 329 0.9 2.6 0.00 0.03 0.03 63 1013.5
20260507093030 60 346 0.9 4.3 0.00 0.03 0.03 65 1013.5
20260507092655 59 344 0.9 4.3 0.00 0.03 0.03 68 1013.6
20260507092014 59 21 1.7 4.3 0.00 0.03 0.03 69 1013.5
20260507091538 59 0 0.9 3.5 0.00 0.03 0.03 75 1013.6
20260507091015 58 360 0.9 2.6 0.00 0.03 0.03 73 1013.6
20260507090515 58 306 0.9 4.3 0.00 0.03 0.03 74 1013.5
20260507090038 57 27 1.7 4.3 0.00 0.03 0.03 74 1013.5
20260507085732 57 335 1.7 4.3 0.00 0.03 0.03 76 1013.6
20260507085021 57 13 1.7 4.3 0.00 0.03 0.03 76 1013.4
20260507084537 56 25 1.7 2.6 0.00 0.03 0.03 78 1013.5
20260507084012 56 27 0.9 4.3 0.00 0.03 0.03 80 1013.5
20260507083512 55 340 1.7 4.3 0.00 0.03 0.03 82 1013.5
20260507083037 55 11 0.9 3.5 0.00 0.03 0.03 83 1013.5
20260507082513 54 338 0.9 3.5 0.00 0.03 0.03 83 1013.5
20260507082014 54 10 0.9 3.5 0.00 0.03 0.03 82 1013.6
20260507081531 54 346 1.7 3.5 0.00 0.03 0.03 82 1013.5
20260507081138 54 9 1.7 6.1 0.00 0.03 0.03 84 1013.5
20260507080603 54 18 1.7 6.1 0.00 0.03 0.03 84 1013.4
20260507080041 54 23 2.6 4.3 0.00 0.03 0.03 85 1013.4
20260507075515 54 14 1.7 3.5 0.00 0.03 0.03 86 1013.5
20260507075014 53 9 1.7 3.5 0.00 0.03 0.03 87 1013.6
20260507074542 52 350 1.7 3.5 0.00 0.03 0.03 89 1013.6
20260507074015 52 334 1.7 3.5 0.00 0.03 0.03 90 1013.6
20260507073514 52 344 0.9 2.6 0.00 0.03 0.03 91 1013.7
20260507073028 51 0 0.0 1.7 0.00 0.03 0.03 93 1013.7
20260507072514 50 331 0.9 1.7 0.00 0.03 0.03 92 1013.7
20260507072013 50 350 0.9 1.7 0.00 0.03 0.03 93 1013.7
20260507071528 50 0 0.0 1.7 0.00 0.03 0.03 93 1013.6
20260507071015 49 344 0.9 1.7 0.00 0.03 0.03 93 1013.6
20260507070516 50 337 0.9 2.6 0.00 0.03 0.03 93 1013.6
20260507070034 49 341 0.0 2.6 0.00 0.03 0.03 93 1013.6
20260507065519 50 30 0.9 2.6 0.00 0.03 0.03 93 1013.6
20260507065014 50 214 0.0 2.6 0.00 0.03 0.03 94 1013.6
20260507064535 49 207 0.9 2.6 0.00 0.03 0.03 94 1013.6
20260507064016 49 207 0.0 1.7 0.00 0.03 0.03 94 1013.5
20260507063512 49 207 0.9 1.7 0.00 0.03 0.03 94 1013.6
20260507063035 49 205 0.0 1.7 0.00 0.03 0.03 94 1013.5
20260507062514 49 205 0.9 1.7 0.00 0.03 0.03 94 1013.5
20260507062014 49 202 0.0 0.9 0.00 0.03 0.03 94 1013.4
20260507061532 49 202 0.9 0.9 0.00 0.03 0.03 95 1013.5
20260507061015 49 204 0.0 0.0 0.00 0.03 0.03 95 1013.5
20260507060514 49 0 0.0 0.0 0.00 0.03 0.03 95 1013.5
20260507060029 49 0 0.0 0.0 0.00 0.03 0.03 95 1013.6
20260507055514 48 0 0.0 0.0 0.00 0.03 0.03 95 1013.5
20260507055011 48 0 0.0 0.0 0.00 0.03 0.03 95 1013.4
20260507054528 48 0 0.0 0.0 0.00 0.03 0.03 95 1013.4
20260507054016 48 0 0.0 0.0 0.00 0.03 0.03 95 1013.3
20260507053511 48 0 0.0 0.0 0.00 0.03 0.03 95 1013.4
20260507053030 48 0 0.0 0.0 0.00 0.03 0.03 95 1013.4
20260507052513 48 0 0.0 0.0 0.00 0.03 0.03 95 1013.4
20260507052014 48 0 0.0 0.0 0.00 0.03 0.03 95 1013.4
20260507051538 48 0 0.0 0.0 0.00 0.03 0.03 95 1013.3
20260507051013 47 0 0.0 0.0 0.00 0.03 0.03 95 1013.2
20260507050514 47 0 0.0 0.0 0.00 0.03 0.03 95 1013.3
20260507050039 47 0 0.0 0.0 0.00 0.03 0.03 95 1013.2
20260507045514 47 0 0.0 0.0 0.00 0.04 0.03 95 1013.2
20260507045014 47 0 0.0 0.0 0.00 0.04 0.03 95 1013.1
20260507044530 47 0 0.0 0.0 0.00 0.04 0.03 95 1013.1
20260507044014 47 0 0.0 0.9 0.00 0.04 0.03 95 1013.0
20260507043514 48 0 0.0 0.9 0.00 0.04 0.03 95 1013.0
20260507043028 48 0 0.0 0.0 0.00 0.04 0.03 95 1013.1
20260507042514 48 0 0.0 0.0 0.00 0.04 0.03 95 1013.1
20260507042253 48 0 0.0 0.0 0.00 0.04 0.03 95 1013.1
20260507042221 48 0 0.0 0.0 0.00 0.04 0.03 95 1013.1
20260507042151 48 0 0.0 0.0 0.00 0.04 0.03 95 1013.1
20260507041531 48 0 0.0 0.0 0.00 0.04 0.03 95 1013.1
20260507041014 48 0 0.0 0.0 0.00 0.04 0.03 95 1013.1
20260507040515 48 0 0.0 0.0 0.00 0.04 0.03 95 1013.0
20260507040030 48 0 0.0 0.0 0.00 0.04 0.03 95 1012.9
20260507035514 48 0 0.0 0.9 0.00 0.04 0.03 95 1012.9
20260507035015 48 0 0.0 0.9 0.00 0.04 0.03 95 1013.0
20260507034550 48 186 0.0 0.9 0.00 0.04 0.03 95 1013.0
20260507034016 48 0 0.0 0.0 0.00 0.04 0.03 94 1013.1
20260507033519 48 0 0.0 0.0 0.00 0.04 0.03 94 1013.0
20260507033036 48 0 0.0 0.0 0.00 0.04 0.03 95 1013.0
20260507032517 48 0 0.0 0.0 0.00 0.04 0.03 95 1013.0
20260507032012 48 0 0.0 0.0 0.00 0.04 0.03 95 1012.9
20260507031531 48 0 0.0 0.0 0.00 0.04 0.03 94 1013.0
20260507031012 48 0 0.0 0.0 0.00 0.04 0.03 94 1012.9
20260507030511 48 0 0.0 0.0 0.00 0.04 0.03 94 1012.9
20260507030028 48 0 0.0 0.0 0.00 0.04 0.03 94 1012.9
20260507025511 48 0 0.0 0.0 0.00 0.04 0.03 94 1012.9
20260507025011 48 0 0.0 0.0 0.00 0.04 0.03 94 1013.0
20260507024545 48 0 0.0 0.0 0.00 0.04 0.03 94 1012.9
20260507024014 48 0 0.0 0.0 0.00 0.04 0.03 94 1012.9
20260507023521 48 0 0.0 0.0 0.00 0.04 0.03 94 1012.8
20260507023028 48 0 0.0 0.0 0.00 0.04 0.03 94 1013.0
20260507022517 48 0 0.0 0.0 0.00 0.04 0.03 94 1012.9
20260507022017 48 0 0.0 0.0 0.00 0.04 0.03 94 1012.9
20260507021537 48 0 0.0 0.0 0.00 0.04 0.03 94 1013.0
20260507021012 48 0 0.0 0.0 0.00 0.04 0.03 94 1012.9
20260507020515 48 0 0.0 0.0 0.00 0.04 0.03 94 1013.0
20260507020030 48 0 0.0 0.0 0.00 0.04 0.03 94 1012.9
20260507015514 48 0 0.0 0.0 0.00 0.04 0.03 94 1012.9
20260507015432 48 0 0.0 0.0 0.00 0.04 0.03 94 1013.0
20260507015210 48 0 0.0 0.0 0.00 0.04 0.03 94 1013.0
20260507015137 48 0 0.0 0.0 0.00 0.04 0.03 94 1013.0
20260507015107 48 0 0.0 0.0 0.00 0.04 0.03 94 1013.0
20260507015036 48 0 0.0 0.0 0.00 0.04 0.03 94 1013.0
20260507014538 48 0 0.0 0.0 0.00 0.04 0.03 94 1013.0
20260507014014 48 0 0.0 0.0 0.00 0.04 0.03 94 1012.9
20260507013514 48 0 0.0 0.0 0.00 0.04 0.03 94 1012.9
20260507013030 48 0 0.0 0.0 0.00 0.04 0.03 94 1012.9
20260507012515 48 0 0.0 0.0 0.01 0.04 0.03 94 1013.0
20260507012014 48 0 0.0 0.0 0.01 0.04 0.03 94 1013.0
20260507011538 48 0 0.0 0.0 0.00 0.03 0.03 93 1013.0
20260507011015 48 0 0.0 0.0 0.01 0.03 0.03 94 1013.0
20260507010516 48 0 0.0 0.0 0.01 0.03 0.03 93 1013.1
20260507010030 48 0 0.0 0.0 0.02 0.03 0.03 93 1013.1
20260507005515 48 0 0.0 0.0 0.02 0.03 0.03 93 1013.1
20260507005015 48 0 0.0 0.0 0.02 0.03 0.03 93 1013.1
20260507004527 48 0 0.0 0.0 0.03 0.03 0.03 93 1013.1
20260507004011 48 0 0.0 0.0 0.03 0.03 0.03 93 1013.2
20260507003514 48 0 0.0 0.0 0.03 0.03 0.03 93 1013.2
20260507003032 48 0 0.0 0.0 0.03 0.03 0.03 93 1013.3
20260507002513 48 0 0.0 0.0 0.02 0.03 0.02 93 1013.2
20260507002013 48 0 0.0 0.0 0.02 0.03 0.02 93 1013.3
20260507001535 48 0 0.0 0.0 0.02 0.03 0.02 93 1013.3
20260507001013 48 0 0.0 0.0 0.01 0.02 0.01 93 1013.3
20260507000514 48 0 0.0 0.0 0.01 0.02 0.01 93 1013.4
20260507000030 48 0 0.0 0.0 0.00 0.01 0.00 93 1013.3
20260506235515 48 0 0.0 0.0 0.00 0.01 0.00 93 1013.3
20260506235013 48 0 0.0 0.0 0.00 0.01 0.00 93 1013.3
20260506234528 48 0 0.0 0.0 0.00 0.00 0.00 92 1013.3
20260506234015 48 0 0.0 0.0 0.00 0.00 0.00 93 1013.3
20260506233511 48 0 0.0 0.0 0.00 0.00 0.00 92 1013.4
20260506233032 48 0 0.0 0.0 0.00 0.00 0.00 92 1013.4
20260506232516 48 0 0.0 0.0 0.00 0.00 0.00 92 1013.4
20260506232010 48 0 0.0 0.0 0.00 0.00 0.00 92 1013.4
20260506231529 48 0 0.0 0.0 0.00 0.00 0.00 92 1013.4
20260506231014 48 0 0.0 0.0 0.00 0.00 0.00 92 1013.4
20260506230513 48 0 0.0 0.0 0.00 0.00 0.00 92 1013.3
20260506230031 48 0 0.0 0.0 0.00 0.00 0.00 92 1013.4
20260506225522 48 0 0.0 0.0 0.00 0.00 0.00 92 1013.3
20260506225014 48 0 0.0 0.0 0.00 0.00 0.00 92 1013.3
20260506224530 48 0 0.0 0.9 0.00 0.00 0.00 92 1013.2
20260506224013 48 0 0.0 0.9 0.00 0.00 0.00 92 1013.3
20260506223515 48 0 0.0 0.9 0.00 0.00 0.00 92 1013.2
20260506223030 48 130 0.0 0.0 0.00 0.00 0.00 91 1013.2
20260506222511 48 0 0.0 0.0 0.00 0.00 0.00 91 1013.2
20260506222015 48 0 0.0 0.0 0.00 0.00 0.00 91 1013.3
20260506221530 48 0 0.0 0.9 0.00 0.00 0.00 91 1013.3
20260506221013 48 0 0.0 0.9 0.00 0.00 0.00 91 1013.2
20260506220514 48 0 0.0 0.9 0.00 0.00 0.00 91 1013.2
20260506220038 48 0 0.0 0.0 0.00 0.00 0.00 91 1013.2
20260506215515 48 0 0.0 0.0 0.00 0.01 0.00 91 1013.2
20260506215014 48 0 0.0 0.0 0.00 0.01 0.00 90 1013.2
20260506214531 48 0 0.0 0.0 0.00 0.01 0.00 90 1013.2
20260506214012 48 0 0.0 0.0 0.00 0.01 0.00 90 1013.1
20260506213512 48 0 0.0 0.0 0.00 0.01 0.00 90 1013.2
20260506213032 49 0 0.0 0.9 0.00 0.01 0.00 90 1013.2
20260506212513 49 0 0.0 0.9 0.00 0.01 0.00 90 1013.2
20260506212014 49 0 0.0 0.0 0.00 0.01 0.00 89 1013.2
20260506211535 49 0 0.0 0.0 0.00 0.01 0.00 89 1013.2
20260506211013 49 0 0.0 0.9 0.00 0.01 0.00 89 1013.2
20260506210511 49 0 0.0 0.9 0.00 0.01 0.00 89 1013.2
20260506210027 49 0 0.0 0.9 0.00 0.01 0.00 89 1013.2
20260506205517 49 0 0.0 0.9 0.00 0.03 0.00 88 1013.2
20260506205013 49 0 0.0 0.0 0.00 0.03 0.00 88 1013.2
20260506204532 49 0 0.0 0.0 0.00 0.03 0.00 87 1013.2
20260506204015 49 0 0.0 0.0 0.00 0.03 0.00 87 1013.1
20260506203513 49 0 0.0 0.0 0.00 0.03 0.00 87 1013.1
20260506203029 49 0 0.0 0.0 0.00 0.03 0.00 87 1013.0
20260506202512 49 0 0.0 0.0 0.00 0.03 0.00 87 1013.0
20260506202011 49 0 0.0 0.0 0.00 0.03 0.00 87 1013.0
20260506201529 49 0 0.0 0.0 0.00 0.03 0.00 86 1012.9
20260506201012 49 0 0.0 0.0 0.00 0.03 0.00 87 1012.9
20260506200512 49 0 0.0 0.0 0.00 0.03 0.00 87 1012.9
20260506200030 49 0 0.0 0.0 0.00 0.03 0.00 86 1012.9
20260506195512 49 0 0.0 0.0 0.00 0.11 0.00 86 1012.7
20260506195028 49 0 0.0 0.0 0.00 0.11 0.00 86 1012.6
20260506194530 49 0 0.0 0.0 0.00 0.11 0.00 86 1012.6
20260506194012 49 0 0.0 0.0 0.00 0.11 0.00 85 1012.5
20260506193512 49 0 0.0 0.0 0.00 0.11 0.00 85 1012.4
20260506193033 49 0 0.0 0.0 0.00 0.11 0.00 85 1012.4
20260506192512 49 0 0.0 0.0 0.00 0.11 0.00 85 1012.4
20260506192011 49 0 0.0 0.0 0.00 0.11 0.00 84 1012.3
20260506191528 49 0 0.0 0.9 0.00 0.11 0.00 84 1012.2
20260506191011 49 0 0.0 0.9 0.00 0.11 0.00 84 1012.1
20260506190512 49 130 0.0 0.9 0.00 0.11 0.00 84 1012.0
20260506190032 49 0 0.0 0.9 0.00 0.11 0.00 84 1011.9
20260506185511 49 0 0.0 0.9 0.00 0.30 0.00 83 1011.8
20260506185016 49 71 0.0 0.9 0.00 0.30 0.00 83 1011.8
20260506184528 49 0 0.0 0.0 0.00 0.30 0.00 83 1011.7
20260506184013 50 0 0.0 0.0 0.00 0.30 0.00 82 1011.6
20260506183510 50 0 0.0 0.0 0.00 0.30 0.00 82 1011.7
20260506183029 50 0 0.0 0.0 0.00 0.30 0.00 81 1011.6
20260506182512 50 0 0.0 0.0 0.00 0.30 0.00 80 1011.6
20260506182011 50 0 0.0 0.0 0.00 0.30 0.00 79 1011.6
20260506181530 51 0 0.0 0.0 0.00 0.30 0.00 80 1011.6
20260506181014 51 0 0.0 0.0 0.00 0.30 0.00 80 1011.6
20260506180514 51 0 0.0 0.9 0.00 0.30 0.00 79 1011.6
20260506180032 51 0 0.0 0.9 0.00 0.30 0.00 78 1011.6
20260506175512 51 0 0.0 0.9 0.00 0.52 0.00 78 1011.4
20260506175013 51 0 0.0 0.0 0.00 0.52 0.00 77 1011.4
20260506174531 51 0 0.0 1.7 0.00 0.52 0.00 76 1011.4
20260506174014 51 0 0.0 1.7 0.00 0.52 0.00 76 1011.3
20260506173513 52 337 0.0 1.7 0.00 0.52 0.00 76 1011.3
20260506173030 52 0 0.0 1.7 0.00 0.52 0.00 76 1011.4
20260506172513 52 0 0.0 1.7 0.00 0.52 0.00 75 1011.3
20260506172015 53 352 0.0 1.7 0.00 0.52 0.00 74 1011.2
20260506171532 53 333 0.9 1.7 0.00 0.52 0.00 72 1011.3
20260506171011 54 0 0.0 1.7 0.00 0.52 0.00 72 1011.3
20260506170516 54 0 0.0 2.6 0.00 0.52 0.00 71 1011.3
20260506170027 55 360 0.9 5.2 0.00 0.52 0.00 71 1011.3
20260506165513 55 0 1.7 5.2 0.00 0.55 0.00 71 1011.3
20260506165017 55 38 1.7 4.3 0.00 0.55 0.00 72 1011.3
20260506164621 55 25 1.7 4.3 0.00 0.55 0.00 73 1011.3
20260506164116 54 256 1.7 3.5 0.00 0.55 0.00 73 1011.4
20260506164018 54 256 1.7 3.5 0.00 0.55 0.00 73 1011.4
20260506163512 54 13 0.0 4.3 0.00 0.55 0.00 76 1011.4
20260506163032 53 309 1.7 4.3 0.00 0.55 0.00 77 1011.4
20260506162517 53 59 0.9 4.3 0.00 0.55 0.00 76 1011.5
20260506162015 52 287 0.9 4.3 0.00 0.55 0.00 77 1011.5
20260506161533 52 345 1.7 5.2 0.00 0.55 0.00 76 1011.5
20260506161016 52 316 1.7 5.2 0.00 0.55 0.00 75 1011.6
20260506160514 52 47 1.7 4.3 0.00 0.55 0.00 76 1011.5
20260506160032 52 349 1.7 6.1 0.00 0.55 0.00 74 1011.4
20260506155514 53 350 2.6 8.7 0.00 0.55 0.00 73 1011.4
20260506155014 53 31 1.7 13.9 0.00 0.55 0.00 73 1011.4
20260506154530 53 336 2.6 13.9 0.00 0.55 0.00 72 1011.4
20260506154012 54 33 2.6 9.6 0.00 0.55 0.00 71 1011.4
20260506153511 55 15 2.6 9.6 0.00 0.55 0.00 71 1011.3
20260506153040 55 243 2.6 9.6 0.00 0.55 0.00 69 1011.4
20260506152510 56 275 3.5 9.6 0.00 0.55 0.00 68 1011.4
20260506152013 56 48 0.9 8.7 0.00 0.55 0.00 66 1011.3
20260506151529 57 146 1.7 8.7 0.00 0.55 0.00 63 1011.2
20260506151014 57 0 2.6 7.8 0.00 0.55 0.00 62 1011.0
20260506150513 57 311 0.0 3.5 0.00 0.55 0.00 64 1011.0
20260506150027 58 256 0.9 8.7 0.00 0.55 0.00 64 1010.9
20260506145517 58 236 1.7 8.7 0.00 0.55 0.00 63 1010.9
20260506145014 58 275 2.6 8.7 0.00 0.55 0.00 62 1011.0
20260506144550 58 263 0.9 9.6 0.00 0.55 0.00 60 1010.9
20260506144010 59 222 6.1 9.6 0.00 0.55 0.00 57 1010.8
20260506143513 60 189 3.5 8.7 0.00 0.55 0.00 58 1010.9
20260506143030 60 188 0.9 7.0 0.00 0.55 0.00 59 1010.9
20260506142509 59 292 1.7 3.5 0.00 0.55 0.00 58 1010.8
20260506142012 59 242 0.9 3.5 0.00 0.55 0.00 58 1010.9
20260506141533 59 290 0.9 8.7 0.00 0.55 0.00 59 1010.9
20260506141019 59 294 1.7 8.7 0.00 0.55 0.00 59 1011.0